Location: *
(60.1759°S, 155.0663°W)
Time: 00:59:48
(UTC+00:00)

NOSS 3-1 (A) - Pass Details

Date: 17 September 2019
Orbit: 772 x 1440 km, 63.4° (Epoch: 17 October)

Event Time Altitude Azimuth Distance (km) Brightness Sun altitude
Rises 14:03:49 0° 236° (SW) 4,043 6.5 -17.6°
Reaches altitude 10° 14:06:48 10° 240° (WSW) 2,973 5.7 -17.3°
Maximum altitude 14:13:23 48° 311° (NW) 1,261 3.7 -16.5°
Drops below altitude 10° 14:19:01 10° 24° (NNE) 2,539 5.7 -15.9°
Sets 14:21:24 0° 29° (NNE) 3,405 6.4 -15.6°
